Theta_e
311 311 308 310 307 307 305 304 302 299 301 298 292 293 293 293 292 293 293 296 301 304 305 304 304 303 303 303 303 302 301 300 299 298 298 298 298 297
313 312 311 311 310 308 306 306 305 302 300 306 298 293 293 293 293 292 292 293 297 301 303 302 302 302 301 301 300 300 300 300 299 299 299 299 299 298
316 314 313 313 311 309 308 307 305 305 301 305 307 297 291 291 292 291 292 292 294 298 301 301 301 300 300 299 299 299 300 300 300 300 300 299 299 298
317 316 314 313 312 312 310 307 306 307 304 302 305 298 293 291 293 290 291 291 292 297 300 300 300 299 298 298 298 298 299 299 299 299 299 298 298 297
319 318 316 315 312 312 311 309 308 307 306 304 303 306 296 290 290 288 289 288 290 295 299 299 298 298 297 297 298 298 297 298 298 298 297 297 297 296
310 314 317 316 314 312 311 310 309 308 305 303 302 302 289 286 288 287 284 286 286 290 295 295 295 296 297 296 297 296 296 296 296 296 296 295 295 295
301 301 301 294 292 296 301 303 305 306 304 301 300 298 286 284 287 287 287 284 284 287 290 290 292 293 293 296 293 293 294 294 294 294 294 293 293 293
294 295 295 291 294 293 294 295 297 296 298 299 300 298 294 288 287 286 286 283 281 284 285 285 288 285 288 291 292 293 293 293 293 293 293 292 292 291
290 290 289 290 289 290 291 292 292 293 296 296 295 296 292 289 287 286 286 287 286 283 285 284 284 284 284 287 292 293 293 293 293 292 292 291 290 290
288 288 288 288 288 288 288 288 289 289 289 291 292 294 295 291 290 289 288 286 282 283 286 279 283 280 282 283 290 291 292 292 291 291 290 289 289 289
287 287 287 287 289 291 288 287 287 288 289 292 292 293 294 294 292 287 283 283 277 281 282 278 279 276 278 280 284 289 290 290 289 289 289 289 288 288
287 287 287 289 290 291 288 286 286 287 286 287 287 288 292 291 291 290 286 285 277 277 280 277 277 277 274 277 278 283 285 289 289 288 288 288 286 279
286 286 286 289 290 290 291 287 287 288 287 285 285 285 285 286 288 287 287 288 281 279 281 280 279 277 275 273 275 278 282 284 284 285 288 287 284 280
284 285 286 289 289 289 288 290 291 288 284 283 283 283 282 282 283 284 285 284 284 282 282 281 280 278 274 273 273 275 276 277 279 278 280 283 282 281
285 286 287 287 287 286 287 287 285 284 283 282 280 279 279 279 280 279 279 280 281 281 280 280 282 278 277 275 273 274 274 274 276 275 275 274 273 274
282 283 284 284 284 283 280 282 283 281 282 280 277 276 278 279 279 280 278 277 276 275 277 281 281 280 276 276 276 274 273 271 274 274 272 272 272 273
274 274 274 277 279 279 279 276 276 276 278 277 277 275 277 277 277 278 277 276 274 273 273 275 277 277 277 276 274 273 273 272 273 272 271 269 270 271
268 268 269 270 273 275 278 277 273 273 274 276 275 277 276 276 276 276 276 275 273 273 273 274 275 274 274 274 276 272 272 271 271 271 270 268 267 269
266 265 266 267 269 271 273 275 275 276 274 277 277 276 277 277 276 274 274 273 272 273 273 275 275 275 271 267 272 276 270 269 269 267 267 267 267 267
262 263 264 265 267 269 270 272 273 274 274 276 276 277 278 277 275 274 273 272 272 272 271 272 272 273 271 269 268 270 275 270 269 267 266 265 268 271
262 263 264 264 265 267 269 270 270 272 272 275 276 276 276 276 274 273 273 272 272 270 268 266 268 271 271 272 268 267 268 274 270 267 266 266 264 264
261 262 263 263 264 265 267 268 268 269 269 271 273 274 274 274 273 273 272 271 269 268 267 268 269 269 268 269 266 265 266 267 272 273 272 270 265 263
260 261 262 263 263 264 265 266 266 267 268 268 269 271 272 271 272 271 270 269 268 267 267 266 267 267 266 267 266 265 264 264 265 266 267 273 273 273
Wind_Speed
13 13 12 11 10 11 10 11 11 10 13 8 7 12 11 11 16 15 17 23 28 27 26 24 24 22 18 18 17 16 16 15 13 12 11 10 9 8
11 14 14 12 12 10 11 11 12 14 15 11 9 7 11 11 14 17 18 24 30 30 29 27 24 23 20 19 18 18 18 16 16 15 13 12 11 9
16 16 18 18 12 12 12 12 13 13 16 12 12 8 10 12 11 13 14 16 14 29 25 25 22 21 21 20 20 19 19 18 17 16 16 14 11 10
16 17 17 14 18 17 12 16 14 14 14 19 14 8 12 13 14 13 12 11 12 24 27 23 23 23 23 22 21 19 18 18 17 16 15 14 12 11
17 17 17 17 16 15 15 15 14 12 14 14 14 10 8 3 4 2 6 5 6 16 27 25 26 26 25 25 23 19 16 15 14 13 14 13 12 12
8 10 12 14 16 16 15 16 15 14 13 13 12 10 2 1 2 5 4 5 9 9 19 21 24 26 26 26 23 17 13 13 14 13 12 13 12 12
7 7 6 5 7 4 1 4 7 8 9 9 10 7 4 3 9 5 8 6 7 9 11 12 12 13 14 21 13 14 16 16 17 14 13 14 13 12
9 8 10 8 10 11 12 9 7 4 8 6 9 10 8 6 4 7 7 7 6 8 13 10 10 9 9 9 17 18 19 19 17 15 15 15 14 13
7 7 8 4 7 8 11 12 10 10 12 8 10 9 5 10 9 10 11 12 8 8 12 10 8 9 7 9 19 20 20 18 16 15 15 15 14 13
7 8 7 9 8 9 9 10 8 6 5 5 8 10 8 7 14 13 13 7 5 7 10 5 6 4 5 5 15 16 17 16 15 15 15 14 14 13
7 6 7 8 12 15 9 11 11 8 5 10 13 16 17 14 13 8 8 10 3 5 5 4 4 4 3 3 4 17 17 16 16 16 16 15 15 15
10 7 8 10 16 16 9 8 10 10 7 8 6 7 9 9 20 14 12 12 6 3 5 5 8 6 4 2 2 4 7 15 15 16 17 17 16 6
7 8 8 19 19 18 16 6 8 9 8 6 5 4 2 1 7 4 9 9 10 3 9 5 9 5 4 6 2 1 5 8 5 10 18 17 15 11
9 9 11 21 20 20 13 18 14 7 3 4 3 3 3 3 3 3 4 4 3 5 14 7 8 8 6 5 5 3 5 5 6 4 6 12 14 13
9 13 17 18 18 13 19 17 9 4 4 3 3 3 3 3 4 6 9 13 12 9 5 2 10 10 6 7 9 6 8 3 5 6 5 5 3 3
12 9 14 14 15 13 8 9 7 5 4 3 2 2 2 3 4 3 6 8 10 8 11 8 9 9 6 8 11 10 7 6 6 6 6 4 3 3
7 5 8 10 10 10 9 6 5 5 4 2 3 3 3 4 5 5 5 5 7 5 7 9 13 15 11 10 10 8 8 8 7 8 6 5 2 2
5 6 8 8 8 10 9 8 5 5 4 3 3 3 3 4 5 6 7 8 9 7 9 8 11 12 10 13 12 10 8 7 7 7 5 4 2 0
7 8 7 8 7 8 8 8 7 5 4 3 3 4 4 5 6 6 7 8 9 7 6 3 4 8 11 6 3 9 9 6 5 4 3 2 3 2
5 6 7 7 7 7 8 7 7 7 5 5 4 3 4 5 6 6 6 8 8 8 7 7 6 6 8 6 6 2 12 9 4 3 3 2 3 5
7 7 7 7 7 6 7 7 7 7 6 4 5 5 5 6 7 7 8 9 10 8 8 7 6 11 8 6 7 4 4 10 5 4 4 4 3 1
5 6 7 7 6 7 7 6 6 7 7 7 6 6 6 6 7 8 7 9 8 7 8 5 5 5 5 5 9 6 3 3 7 12 6 5 4 4
5 5 6 6 6 6 6 5 5 5 5 5 5 6 6 7 7 7 9 9 8 7 6 5 4 5 5 7 8 4 5 2 2 2 2 8 2 3
Wind_Direction
222 222 217 226 212 218 220 226 240 261 260 241 221 207 210 213 217 205 210 212 212 208 200 202 200 198 199 212 212 204 200 200 199 198 201 194 190 187
224 224 225 225 225 214 217 221 223 237 256 252 231 202 202 214 218 209 211 210 206 204 199 198 196 184 190 214 214 209 205 202 201 200 205 204 199 200
228 228 229 228 226 223 220 224 229 232 248 252 255 213 199 211 216 213 218 211 207 202 197 192 190 177 186 210 214 212 210 206 206 205 210 212 210 211
232 232 230 230 233 234 226 224 228 229 237 248 240 218 208 211 215 207 210 209 205 199 187 183 186 181 184 208 212 211 214 212 210 210 214 214 210 210
244 243 231 230 234 233 228 229 226 232 236 242 249 242 210 170 189 167 195 190 179 186 186 189 184 188 186 202 210 205 209 214 209 210 213 217 213 209
352 312 273 250 246 247 242 238 237 239 235 238 245 240 164 140 129 179 181 180 178 191 198 191 194 195 189 201 208 198 200 201 205 206 207 213 212 209
348 339 322 319 313 355 151 282 284 260 255 251 250 242 175 171 199 184 198 164 183 184 189 194 191 191 190 199 198 187 198 203 206 205 204 206 205 205
337 335 326 331 333 328 319 297 266 239 240 245 256 246 223 200 159 177 164 160 199 194 184 184 178 170 180 179 185 189 199 206 206 206 205 204 203 200
321 332 321 326 323 326 320 315 311 291 262 271 259 244 218 191 174 177 189 196 205 159 182 180 179 171 161 164 179 189 199 202 202 199 204 201 201 197
332 325 319 325 319 322 315 310 300 287 273 265 263 273 267 202 191 194 190 161 68 149 168 150 176 125 137 139 170 188 192 189 193 195 197 196 192 182
330 330 319 313 315 325 321 311 306 305 284 284 276 275 272 223 187 139 157 161 124 167 161 117 146 102 76 121 168 188 178 175 186 188 187 180 176 169
349 329 306 317 323 324 314 306 313 309 313 315 307 302 281 214 185 185 169 175 133 111 176 113 147 132 112 58 88 136 163 171 174 181 183 173 145 111
340 337 336 334 336 339 337 307 291 301 304 305 302 305 335 115 187 190 188 176 163 119 165 116 165 132 94 124 92 69 150 149 147 166 166 150 151 146
342 337 336 341 347 351 353 347 339 341 328 323 327 350 3 34 51 77 133 69 81 111 154 146 151 155 129 117 133 129 93 86 102 96 122 148 152 151
350 350 352 356 357 0 1 2 359 355 341 334 342 11 359 50 63 75 77 81 77 83 94 82 142 127 129 133 142 142 128 101 112 110 94 95 87 101
354 2 7 10 11 3 354 358 350 346 353 350 0 0 351 43 57 60 97 98 91 63 48 67 122 124 103 121 138 141 128 145 134 114 106 83 62 68
343 5 13 11 5 1 352 343 349 352 3 10 18 18 40 60 63 71 70 77 94 104 88 77 79 76 70 109 116 124 117 124 127 124 111 104 54 86
21 11 6 8 2 349 350 345 339 349 344 7 43 44 48 66 78 68 79 88 97 99 104 109 112 103 89 61 63 111 104 122 120 107 103 95 102 82
36 14 1 354 351 347 342 348 343 345 345 8 43 63 77 78 74 79 89 97 94 92 78 68 98 120 111 103 90 79 123 120 114 95 95 111 135 172
15 354 345 342 343 350 339 348 349 347 348 10 30 43 66 79 85 87 87 105 105 99 82 53 51 80 112 123 116 61 122 120 108 116 121 81 70 78
352 347 343 332 339 335 343 355 350 355 347 12 30 33 44 76 78 78 86 90 93 87 82 70 59 92 100 96 89 80 39 106 119 137 138 111 109 92
340 336 338 330 343 344 345 353 1 9 1 0 15 54 64 70 88 96 91 92 82 87 90 74 43 53 51 99 119 104 101 55 82 134 124 127 159 164
336 333 331 340 345 344 335 1 6 3 12 14 13 30 56 73 71 77 89 94 98 94 94 86 60 57 58 96 111 109 115 97 74 91 40 52 87 151